This is the latest recevied weather packets stored in our database for station/object N5JXS. If no packets are shown the sender has not sent any weather packets the latest 10 day(s).
| Time | Temp. | Humidity | Pressure | Rain* | Wind** | Luminosity | Snow |
|---|---|---|---|---|---|---|---|
| 1787980915 | 16.67° C | 55% | 1028.5 hPa | 0 mm | - | 0 W/m² | - |
| 1787980610 | 17.22° C | 57% | 1028.3 hPa | 0 mm | - | 0 W/m² | - |
| 1787980306 | 17.22° C | 55% | 1028.5 hPa | 0 mm | - | 0 W/m² | - |
| 1787980001 | 17.22° C | 56% | 1028.8 hPa | 0 mm | - | 0 W/m² | - |
| 1787979701 | 17.22° C | 55% | 1028.6 hPa | 0 mm | - | 0 W/m² | - |
| 1787979395 | 17.78° C | 55% | 1028.7 hPa | 0 mm | - | 0 W/m² | - |
| 1787979095 | 17.78° C | 55% | 1028.7 hPa | 0 mm | - | 0 W/m² | - |
| 1787978793 | 17.78° C | 55% | 1029 hPa | 0 mm | - | 0 W/m² | - |
| 1787978489 | 17.78° C | 55% | 1028.8 hPa | 0 mm | - | 0 W/m² | - |
| 1787978185 | 17.78° C | 55% | 1029 hPa | 0 mm | - | 0 W/m² | - |
| 1787977884 | 17.78° C | 56% | 1029 hPa | 0 mm | - | 0 W/m² | - |
| 1787977584 | 17.78° C | 56% | 1029.2 hPa | 0 mm | - | 0 W/m² | - |
| 1787977279 | 17.78° C | 58% | 1029.3 hPa | 0 mm | - | 0 W/m² | - |
| 1787976974 | 17.78° C | 55% | 1029.2 hPa | 0 mm | - | 0 W/m² | - |
| 1787976669 | 17.78° C | 58% | 1029.2 hPa | 0 mm | - | 0 W/m² | - |
| 1787976364 | 17.78° C | 56% | 1029.2 hPa | 0 mm | - | 0 W/m² | - |
| 1787976059 | 17.78° C | 56% | 1029.1 hPa | 0 mm | - | 0 W/m² | - |
| 1787975757 | 17.78° C | 56% | 1029.3 hPa | 0 mm | - | 0 W/m² | - |
| 1787975457 | 17.78° C | 56% | 1029.1 hPa | 0 mm | - | 0 W/m² | - |
| 1787975156 | 17.78° C | 56% | 1029.2 hPa | 0 mm | - | 0 W/m² | - |
| 1787974855 | 17.78° C | 57% | 1029.2 hPa | 0 mm | - | 0 W/m² | - |
| 1787974555 | 17.78° C | 56% | 1029.2 hPa | 0 mm | - | 0 W/m² | - |
| 1787974250 | 18.33° C | 56% | 1029.2 hPa | 0 mm | - | 0 W/m² | - |
| 1787973949 | 18.33° C | 55% | 1029 hPa | 0 mm | - | 0 W/m² | - |
| 1787973644 | 18.33° C | 54% | 1029 hPa | 0 mm | - | 0 W/m² | - |
* Rain latest hour (hover to see other rain measurements)
** Current wind speed in m/s (hover to see current wind gust speed)